Location: Peebles
(55.6412°N, 3.1714°W)
Time: 11:44:50
(UTC+00:00)

Envisat - Visible Passes

Search period start: 23 February 2024 00:00
Search period end: 04 March 2024 00:00
Orbit: 762 x 764 km, 98.3° (Epoch: 22 February)

Date Brightness Start Highest point End Pass type
(mag) Time Alt. Az. Time Alt. Az. Time Alt. Az.
23 Feb 4.5 03:05:10 10° NNE 03:09:04 33° ENE 03:09:04 33° ENE visible
23 Feb 3.2 04:44:05 10° N 04:48:57 48° WNW 04:49:15 47° WNW visible
23 Feb 4.9 06:24:42 10° NNW 06:26:51 13° NW 06:29:01 10° WNW visible
24 Feb 5.3 02:28:31 10° NE 02:31:28 19° ENE 02:31:28 19° ENE visible
24 Feb 2.9 04:06:38 10° NNE 04:11:39 85° NNW 04:11:39 85° NNW visible
24 Feb 4.4 05:46:27 10° N 05:50:07 20° NW 05:51:49 17° WNW visible
25 Feb 3.7 03:29:23 10° NNE 03:34:03 51° E 03:34:03 51° E visible
25 Feb 3.7 05:08:41 10° N 05:13:12 33° WNW 05:14:14 30° W visible
26 Feb 4.7 02:52:25 10° NNE 02:56:28 28° E 02:56:28 28° E visible
26 Feb 3.0 04:31:07 10° N 04:36:07 58° WNW 04:36:37 55° W visible
26 Feb 4.7 06:11:23 10° NNW 06:14:10 15° NW 06:16:48 10° WNW visible
27 Feb 5.5 02:16:03 10° NE 02:18:52 15° E 02:18:52 15° E visible
27 Feb 3.0 03:53:44 10° NNE 03:58:51 78° ESE 03:59:02 77° SE visible
27 Feb 4.2 05:33:22 10° N 05:37:22 24° NW 05:39:13 20° W visible
28 Feb 4.0 03:16:34 10° NNE 03:21:24 42° E 03:21:27 42° E visible
28 Feb 3.5 04:55:41 10° N 05:00:24 40° WNW 05:01:37 34° W visible
29 Feb 4.9 02:39:44 10° NE 02:43:45 23° E 02:43:51 23° E visible
29 Feb 2.9 04:18:10 10° NNE 04:23:15 72° WNW 04:24:01 61° WSW visible
29 Feb 4.6 05:58:12 10° N 06:01:28 18° NW 06:04:11 12° W visible
01 Mar 5.6 02:03:53 10° ENE 02:05:54 12° E 02:06:15 12° E visible
01 Mar 3.2 03:40:52 10° NNE 03:45:56 63° ESE 03:46:26 60° SE visible
01 Mar 4.0 05:20:18 10° N 05:24:36 28° WNW 05:26:36 22° W visible
02 Mar 4.3 03:03:47 10° NNE 03:08:25 34° E 03:08:50 33° ESE visible
02 Mar 3.2 04:42:41 10° N 04:47:35 48° WNW 04:49:01 38° WSW visible
02 Mar 4.9 06:23:17 10° NNW 06:25:29 13° NW 06:27:41 10° WNW visible
03 Mar 5.2 02:27:08 10° NE 02:30:41 19° E 02:31:14 18° E visible
03 Mar 2.9 04:05:15 10° NNE 04:10:22 87° WNW 04:11:25 58° SSW visible
03 Mar 4.4 05:45:03 10° N 05:48:44 21° NW 05:51:36 13° W visible
